Overview Statistics Trail Chart Weather Telemetry Raw packets
 

This is the latest recevied weather packets stored in our database for station/object W0PE-1. If no packets are shown the sender has not sent any weather packets the latest 10 day(s).

<< 1 2 3 4 5 6 7 >>
Time Temp. Humidity Pressure Rain* Wind** Luminosity Snow
1788536753 19.44° C 89% 1012.7 hPa 0 mm - - -
1788535865 19.44° C 90% 1012.8 hPa 0 mm - - -
1788534948 18.89° C 91% 1012.5 hPa 0 mm - - -
1788534046 18.33° C 91% 1012.6 hPa 0 mm - - -
1788533145 17.78° C 91% 1012.6 hPa 0 mm - - -
1788532245 17.22° C 91% 1012.5 hPa 0 mm - - -
1788531342 16.11° C 90% 1012.4 hPa 0 mm - - -
1788530440 16.11° C 90% 1012.1 hPa 0 mm - - -
1788529538 16.11° C 89% 1012.1 hPa 0 mm - - -
1788528641 16.11° C 89% 1012 hPa 0 mm - - -
1788527754 16.11° C 89% 1012 hPa 0 mm - - -
1788526839 16.11° C 88% 1012 hPa 0 mm - - -
1788525934 16.11° C 88% 1011.9 hPa 0 mm - - -
1788525033 16.11° C 88% 1011.9 hPa 0 mm - - -
1788524133 16.67° C 88% 1011.7 hPa 0 mm - - -
1788523238 16.67° C 88% 1011.7 hPa 0 mm - - -
1788522331 16.67° C 88% 1011.6 hPa 0 mm - - -
1788521429 16.67° C 87% 1011.7 hPa 0 mm - - -
1788520538 16.67° C 87% 1011.6 hPa 0 mm - - -
1788519627 16.67° C 87% 1011.7 hPa 0 mm - - -
1788518726 17.22° C 87% 1011.7 hPa 0 mm - - -
1788517835 17.22° C 87% 1011.6 hPa 0 mm - - -
1788516924 17.22° C 87% 1011.6 hPa 0 mm - - -
1788516022 17.22° C 86% 1011.6 hPa 0 mm - - -
1788515121 17.22° C 86% 1011.6 hPa 0 mm - - -

* Rain latest hour (hover to see other rain measurements)
** Current wind speed in m/s (hover to see current wind gust speed)